Location: Altoona
(40.5167°N, 78.4000°W)
Time: 18:19:02
(UTC-04:00)

Okean 1-7 Rocket - Pass Details

Date: 21 August 2017
Orbit: 617 x 649 km, 82.5° (Epoch: 22 September)

Event Time Altitude Azimuth Distance (km) Brightness Sun altitude
Rises 21:24:27 0° 358° (N) 2,937 7.5 -15.2°
Reaches altitude 10° 21:26:45 10° 4° (N) 2,029 6.6 -15.5°
Maximum altitude 21:31:07 48° 79° (E) 836 3.9 -16.3°
Enters shadow 21:33:00 30° 136° (SE) 1,158 4.4 -16.6°
